Погода в Нашике

Индия     19°58′42″N   73°47′31″E
темп.,
°C
ветер,
м/с
пор.,
м/с
влажн.,
%
обл.,
%
осадки,
мм/ч
давл.,
гПа
погр.,
м
11 апреля, вс
вс1123:30+28юз222934 0.0 101242
02:30+26з343463 0.0 101165
05:30+24зсз223599 0.0 101237
08:30+29ююв212253 0.0 1014317
11:30+34сз22125 0.0 10133215
14:30+36зюз221295 0.0 10094223
17:30+35з231383 0.0 10083996
20:30+29зсз37174 0.0 1012198
12 апреля, пн
пн1223:30+28зсз36170 0.0 1013102
02:30+26зсз35205 0.0 101299
05:30+24з22257 0.0 101227
08:30+29ссз47195 0.0 1015551
11:30+35с43115 0.0 10132713
14:30+37ссз32115 0.0 10094515
17:30+36ссз541181 0.0 10083581
20:30+30сз5121828 0.0 1011486
13 апреля, вт
вт1323:30+27зсз48225 0.0 1012192
02:30+25з34355 0.0 101193
05:30+24юз1134100 0.0 101213
08:30+29с35225 0.0 1014463
11:30+36с451176 0.0 10122914
14:30+37в431074 0.0 10084555
17:30+37всв2210100 0.0 10074632
20:30+29сз6121960 0.0 1010416
14 апреля, ср
ср1423:30+27з33255 0.0 101261
02:30+25зсз383579 0.0 1010265
05:30+25зюз114091 0.0 101216
08:30+29ссз462598 0.1 1014571
11:30+34ссз541685 0.1 10132419
14:30+35сз331597 0.0 10093822
17:30+34с651744 0.1 10082373
20:30+27ююв24345 0.3 1012146
15 апреля, чт
чт1523:30+27сз33325 0.3 101251
02:30+25з33364 0.0 101052
05:30+23сз11403 0.0 101212
08:30+27зсз22331 0.0 1014376
11:30+33ссз22210 0.0 10122201
14:30+36ссз13155 0.0 10084244
17:30+32зсз1092621 0.0 10081104
20:30+27зсз49260 0.0 1011425